Regional Weather Roundup
Issued by NWS

Home | Current Version | Previous Version | Text Only | Print | Product List | Glossary Off
Versions: 1 2 3 4 5 6 7 8 9 10 11 12 13 14 15 16 17 18 19 20 21 22 23 24 25 26 27 28 29 30 31 32 33 34 35 36 37 38 39 40 41 42 43 44 45 46 47 48 49 50

524
ASUS43 KIND 200909
RWRIN

WEATHER ROUNDUP FOR INDIANA
NATIONAL WEATHER SERVICE INDIANAPOLIS IN
400 AM EST MON FEB 20 2017

NOTE: "FAIR" INDICATES FEW OR NO CLOUDS BELOW 12,000 FEET WITH NO
SIGNIFICANT WEATHER AND/OR OBSTRUCTIONS TO VISIBILITY.

* - STATION DOES NOT REPORT WEATHER SUCH AS PRECIPITATION OR FOG.

+ - STATION NOT QUALITY CONTROLLED BY THE NATIONAL WEATHER SERVICE.
    USE DATA WITH CAUTION...ESPECIALLY DEWPOINT AND RELATIVE
    HUMIDITY OBSERVATIONS.

INZ001>003-010>013-019-020-201000-
NORTHWEST INDIANA

CITY           SKY/WX    TMP DP  RH WIND       PRES   REMARKS
GARY /AIRPORT/ CLOUDY    41  39  92 SE3       30.14S
KNOX *+        CLOUDY    36  21  55 CALM      30.15S
LA PORTE +     CLOUDY    39  30  69 CALM      30.16S
MICHIGAN CITY+ CLOUDY    41  32  70 SE3       30.15S
MONTICELLO +   MOCLDY    39  38  94 SE3       30.15S FOG
RENSSELAER +   PTCLDY    39  39 100 E3        30.14S FOG
VALPARAISO     CLOUDY    41  35  79 E3        30.15S

$$

LMZ046-743>745-201000-
SOUTHERN LAKE MICHIGAN

STATION/POSITION TIME  TEMP    WIND        PRES    WAVE
                       AIR SEA DIR/SP/G            HT
                 (UTC) (F)     (DEG/KT/KT) (MB)    (FT)
BURNS HARBOR     0840   52     170/  7/ 10 1021.0S
MICHIGAN CITY    0840   49     120/  6/  7   N/A

$$

INZ004-005-014>016-021>024-201000-
NORTH CENTRAL INDIANA

CITY           SKY/WX    TMP DP  RH WIND       PRES   REMARKS
GOSHEN         CLOUDY    34  28  79 CALM      30.17R
LOGANSPORT +   PTCLDY    37  37 100 E3        30.16S FOG
PERU/GRISSOM   CLOUDY    41  41 100 SE5       30.15R FOG
ROCHESTER +    CLOUDY    36  34  93 CALM      30.17R
SOUTH BEND     CLOUDY    37  28  70 CALM      30.17R
WARSAW +       PTCLDY    36  32  87 CALM      30.16S

$$

INZ006>009-017-018-025>027-201000-
NORTHEAST INDIANA

CITY           SKY/WX    TMP DP  RH WIND       PRES   REMARKS
ANGOLA *+      CLEAR     36  34  93 CALM      30.16S
AUBURN +       PTCLDY    34  32  93 CALM      30.17S
FORT WAYNE     MOCLDY    36  32  85 CALM      30.17S
HUNTINGTON +   CLOUDY    35  34  96 CALM      30.16F
KENDALLVILLE + PTCLDY    39  31  73 CALM      30.16S

$$

INZ028-029-035-036-043>045-051>053-201000-
WEST CENTRAL INDIANA

CITY           SKY/WX    TMP DP  RH WIND       PRES   REMARKS
GREENCASTLE +  FOG       36  36 100 E5        30.14F VSB<1/4
LAFAYETTE      FOG       41  41 100 NE3       30.14S VSB 1/2
TERRE HAUTE    FOG       44  42  93 E3        30.13F VSB 1/4

$$

INZ030>032-037>040-046>048-054>057-064-065-201000-
CENTRAL INDIANA

CITY           SKY/WX    TMP DP  RH WIND       PRES   REMARKS
CP ATTERBURY + CLOUDY    37  36  93 CALM      30.17F VSB<1/4
FISHERS *+       N/A     37  37 100 CALM      30.16  VSB 3/4
FRANKFORT +    FOG       39  38  96 SE6       30.16S VSB 1
GREENWOOD *+   CLOUDY    43  43 100 CALM      30.17S VSB 1/4
INDIANAPOLIS   FOG       44  44 100 E6        30.15F VSB 1/2
-EAGLE CREEK   FOG       40  38  93 CALM      30.15S VSB 1
KOKOMO +       FOG       41  41 100 CALM      30.17R VSB 1/2
MARION +       FOG       38  38 100 SE3       30.17S VSB 3/4
MT COMFORT *+  CLOUDY    36  36 100 CALM      30.17S VSB<1/4
SHELBYVILLE    FOG       39  37  92 CALM      30.17R VSB 1/4
ZIONSVILLE +   FOG       35  35  99 CALM      30.16S VSB<1/4

$$

INZ033-034-041-042-049-050-058-059-201000-
EAST CENTRAL INDIANA

CITY           SKY/WX    TMP DP  RH WIND       PRES   REMARKS
MUNCIE         CLOUDY    40  38  93 SE5       30.16F FOG

$$

INZ060-061-067>069-081>083-085>088-201000-
SOUTHWEST INDIANA

CITY           SKY/WX    TMP DP  RH WIND       PRES   REMARKS
EVANSVILLE     FOG       43  41  93 NE5       30.14S VSB 1/4
HUNTINGBURG *+ CLOUDY    45  43  93 CALM      30.15S VSB<1/4
WASHINGTON +   FOG       41  39  94 SE3       30.15S VSB 1/4

$$

INZ062-063-066-070>080-084-089>092-201000-
SOUTH CENTRAL AND SOUTHEAST INDIANA

CITY           SKY/WX    TMP DP  RH WIND       PRES   REMARKS
BEDFORD +      FOG       41  39  93 CALM      30.16  VSB 1/4
BLOOMINGTON    FOG       43  40  89 SE5       30.15F VSB 1/4
MADISON *+       N/A     36  36 100 CALM      30.19R VSB 1/4
NORTH VERNON + FOG      N/A N/A N/A CALM      30.17S VSB 1/4

$$





USA.gov is the U.S. government's official web portal to all federal, state and local government web resources and services.